TimeEDT,TemperatureF,Dew PointF,Humidity,Sea Level PressureIn,VisibilityMPH,Wind Direction,Wind SpeedMPH,Gust SpeedMPH,PrecipitationIn,Events,Conditions,WindDirDegrees,DateUTC
12:15 AM,73.4,71.6,94,30.00,7.0,Calm,Calm,-,N/A,,Scattered Clouds,0,2013-09-15 04:15:00
12:35 AM,75.2,71.6,89,29.99,7.0,Calm,Calm,-,N/A,,Scattered Clouds,0,2013-09-15 04:35:00
12:53 AM,75.9,72.0,87,29.98,-9999.0,Calm,Calm,-,N/A,,Unknown,0,2013-09-15 04:53:00
12:55 AM,73.4,71.6,94,29.99,5.0,Calm,Calm,-,N/A,,Scattered Clouds,0,2013-09-15 04:55:00
1:15 AM,73.4,71.6,94,30.00,2.5,Calm,Calm,-,N/A,,Scattered Clouds,0,2013-09-15 05:15:00
1:35 AM,73.4,71.6,94,29.99,4.0,SE,3.5,-,N/A,,Scattered Clouds,140,2013-09-15 05:35:00
1:53 AM,75.9,73.0,91,29.98,-9999.0,Calm,Calm,-,N/A,,Unknown,0,2013-09-15 05:53:00
1:55 AM,73.4,71.6,94,29.99,4.0,Calm,Calm,-,N/A,,Clear,0,2013-09-15 05:55:00
2:15 AM,73.4,71.6,94,29.99,5.0,Calm,Calm,-,N/A,,Clear,0,2013-09-15 06:15:00
2:35 AM,73.4,71.6,94,29.99,3.0,Calm,Calm,-,N/A,,Clear,0,2013-09-15 06:35:00
2:53 AM,73.9,71.1,91,29.98,-9999.0,Calm,Calm,-,N/A,,Unknown,0,2013-09-15 06:53:00
2:55 AM,71.6,69.8,94,30.00,2.5,Calm,Calm,-,N/A,,Clear,0,2013-09-15 06:55:00
3:15 AM,73.4,71.6,94,30.00,2.5,Calm,Calm,-,N/A,,Clear,0,2013-09-15 07:15:00
3:35 AM,71.6,71.6,100,29.99,3.0,NE,3.5,-,N/A,,Clear,50,2013-09-15 07:35:00
3:53 AM,75.0,72.0,90,29.98,-9999.0,NE,3.5,-,N/A,,Unknown,50,2013-09-15 07:53:00
3:55 AM,71.6,71.6,100,29.99,4.0,ENE,3.5,-,N/A,,Clear,60,2013-09-15 07:55:00
4:15 AM,71.6,71.6,100,29.99,5.0,Calm,Calm,-,N/A,,Clear,0,2013-09-15 08:15:00
4:35 AM,71.6,69.8,94,30.00,5.0,Calm,Calm,-,N/A,,Clear,0,2013-09-15 08:35:00
4:53 AM,75.0,71.1,87,29.98,-9999.0,ESE,5.8,-,N/A,,Unknown,110,2013-09-15 08:53:00
4:55 AM,71.6,69.8,94,30.00,7.0,ESE,5.8,-,N/A,,Clear,120,2013-09-15 08:55:00
5:15 AM,71.6,71.6,100,30.00,5.0,East,3.5,-,N/A,,Clear,100,2013-09-15 09:15:00
5:35 AM,71.6,69.8,94,30.00,5.0,ESE,4.6,-,N/A,,Clear,110,2013-09-15 09:35:00
5:53 AM,75.0,71.1,87,29.99,-9999.0,Calm,Calm,-,N/A,,Unknown,0,2013-09-15 09:53:00
5:55 AM,71.6,69.8,94,30.01,5.0,Calm,Calm,-,N/A,,Clear,0,2013-09-15 09:55:00
6:15 AM,71.6,69.8,94,30.01,5.0,Calm,Calm,-,N/A,,Clear,0,2013-09-15 10:15:00
6:35 AM,71.6,69.8,94,30.02,4.0,Calm,Calm,-,N/A,,Clear,0,2013-09-15 10:35:00
6:53 AM,73.0,69.1,87,30.00,-9999.0,Calm,Calm,-,N/A,,Unknown,0,2013-09-15 10:53:00
6:55 AM,69.8,69.8,100,30.02,3.0,Calm,Calm,-,N/A,,Clear,0,2013-09-15 10:55:00
7:15 AM,71.6,69.8,94,30.02,3.0,Calm,Calm,-,N/A,,Clear,0,2013-09-15 11:15:00
7:35 AM,71.6,69.8,94,30.04,2.5,Calm,Calm,-,N/A,,Clear,0,2013-09-15 11:35:00
7:53 AM,73.0,70.0,90,30.02,-9999.0,ESE,3.5,-,N/A,,Unknown,110,2013-09-15 11:53:00
7:55 AM,71.6,69.8,94,30.04,3.0,East,4.6,-,N/A,,Clear,100,2013-09-15 11:55:00
8:15 AM,71.6,69.8,94,30.04,4.0,ESE,4.6,-,N/A,,Clear,110,2013-09-15 12:15:00
8:35 AM,73.4,71.6,94,30.05,5.0,East,3.5,-,N/A,,Clear,80,2013-09-15 12:35:00
8:53 AM,77.0,72.0,84,30.04,-9999.0,Variable,3.5,-,N/A,,Unknown,0,2013-09-15 12:53:00
8:55 AM,73.4,71.6,94,30.06,7.0,Calm,Calm,-,N/A,,Clear,0,2013-09-15 12:55:00
9:15 AM,77.0,71.6,83,30.06,7.0,ESE,6.9,-,N/A,,Clear,120,2013-09-15 13:15:00
9:35 AM,78.8,71.6,78,30.07,7.0,East,5.8,-,N/A,,Clear,90,2013-09-15 13:35:00
9:53 AM,82.0,73.0,74,30.06,-9999.0,ENE,3.5,-,N/A,,Unknown,70,2013-09-15 13:53:00
9:55 AM,80.6,73.4,79,30.07,7.0,Calm,Calm,-,N/A,,Clear,0,2013-09-15 13:55:00
10:15 AM,80.6,71.6,74,30.08,10.0,East,3.5,-,N/A,,Clear,100,2013-09-15 14:15:00
10:35 AM,82.4,71.6,70,30.08,10.0,SE,5.8,-,N/A,,Clear,130,2013-09-15 14:35:00
10:53 AM,86.0,73.0,65,30.06,-9999.0,ESE,8.1,-,N/A,,Unknown,120,2013-09-15 14:53:00
10:55 AM,82.4,71.6,70,30.08,10.0,SE,6.9,-,N/A,,Clear,130,2013-09-15 14:55:00
11:15 AM,86.0,71.6,62,30.08,10.0,ESE,5.8,-,N/A,,Clear,110,2013-09-15 15:15:00
11:35 AM,86.0,71.6,62,30.07,10.0,SE,5.8,-,N/A,,Clear,130,2013-09-15 15:35:00
11:53 AM,89.1,73.0,59,30.06,-9999.0,SE,8.1,-,N/A,,Unknown,130,2013-09-15 15:53:00
11:55 AM,87.8,71.6,58,30.07,10.0,SE,6.9,-,N/A,,Clear,140,2013-09-15 15:55:00
12:15 PM,87.8,71.6,58,30.07,10.0,ENE,5.8,-,N/A,,Clear,70,2013-09-15 16:15:00
12:35 PM,87.8,71.6,58,30.06,10.0,East,4.6,-,N/A,,Scattered Clouds,80,2013-09-15 16:35:00
12:53 PM,91.9,71.1,50,30.04,-9999.0,ESE,6.9,-,N/A,,Unknown,120,2013-09-15 16:53:00
12:55 PM,89.6,69.8,52,30.06,10.0,ESE,4.6,-,N/A,,Clear,110,2013-09-15 16:55:00
1:15 PM,89.6,68.0,49,30.05,10.0,ENE,4.6,-,N/A,,Clear,60,2013-09-15 17:15:00
1:35 PM,89.6,68.0,49,30.05,10.0,ENE,6.9,-,N/A,,Clear,70,2013-09-15 17:35:00
1:53 PM,93.9,70.0,46,30.03,-9999.0,Calm,Calm,-,N/A,,Unknown,0,2013-09-15 17:53:00
1:55 PM,91.4,68.0,46,30.05,10.0,East,3.5,-,N/A,,Clear,100,2013-09-15 17:55:00
2:15 PM,89.6,68.0,49,30.04,10.0,ENE,6.9,-,N/A,,Scattered Clouds,70,2013-09-15 18:15:00
2:35 PM,91.4,68.0,46,30.04,10.0,ENE,3.5,-,N/A,,Scattered Clouds,70,2013-09-15 18:35:00
2:53 PM,91.9,69.1,47,30.02,-9999.0,East,3.5,-,N/A,,Unknown,90,2013-09-15 18:53:00
2:55 PM,89.6,68.0,49,30.03,10.0,East,4.6,-,N/A,,Scattered Clouds,90,2013-09-15 18:55:00
3:15 PM,91.4,69.8,49,30.03,10.0,NE,4.6,-,N/A,,Mostly Cloudy,50,2013-09-15 19:15:00
3:35 PM,89.6,68.0,49,30.02,10.0,ENE,6.9,-,N/A,,Mostly Cloudy,60,2013-09-15 19:35:00
3:53 PM,93.0,69.1,45,30.00,-9999.0,Variable,3.5,-,N/A,,Unknown,0,2013-09-15 19:53:00
3:55 PM,91.4,64.4,41,30.01,10.0,East,5.8,-,N/A,,Scattered Clouds,90,2013-09-15 19:55:00
4:15 PM,91.4,64.4,41,30.01,10.0,NE,5.8,-,N/A,,Scattered Clouds,40,2013-09-15 20:15:00
4:35 PM,91.4,68.0,46,30.00,10.0,ESE,4.6,-,N/A,,Scattered Clouds,120,2013-09-15 20:35:00
4:53 PM,91.0,70.0,50,29.99,-9999.0,ENE,3.5,-,N/A,,Unknown,60,2013-09-15 20:53:00
4:55 PM,87.8,68.0,52,30.00,10.0,ENE,3.5,-,N/A,,Overcast,60,2013-09-15 20:55:00
5:15 PM,87.8,68.0,52,30.00,10.0,Calm,Calm,-,N/A,,Scattered Clouds,0,2013-09-15 21:15:00
5:35 PM,87.8,68.0,52,30.00,10.0,East,3.5,-,N/A,,Scattered Clouds,100,2013-09-15 21:35:00
5:53 PM,89.1,69.1,52,29.99,-9999.0,ESE,5.8,-,N/A,,Unknown,110,2013-09-15 21:53:00
5:55 PM,87.8,68.0,52,30.01,10.0,East,5.8,-,N/A,,Mostly Cloudy,100,2013-09-15 21:55:00
6:15 PM,86.0,68.0,55,30.02,10.0,Calm,Calm,-,N/A,,Clear,0,2013-09-15 22:15:00
6:35 PM,87.8,68.0,52,30.02,10.0,East,3.5,-,N/A,,Clear,80,2013-09-15 22:35:00
6:53 PM,89.1,72.0,57,30.01,-9999.0,Calm,Calm,-,N/A,,Unknown,0,2013-09-15 22:53:00
6:55 PM,87.8,69.8,55,30.02,10.0,East,3.5,-,N/A,,Clear,90,2013-09-15 22:55:00
7:15 PM,86.0,69.8,58,30.04,10.0,Calm,Calm,-,N/A,Thunderstorm,Clear,0,2013-09-15 23:15:00
7:35 PM,80.6,69.8,70,30.06,10.0,SSE,13.8,23.0,N/A,Thunderstorm,Scattered Clouds,160,2013-09-15 23:35:00
7:53 PM,81.0,68.0,65,30.05,-9999.0,SSE,12.7,-,N/A,,Unknown,150,2013-09-15 23:53:00
7:55 PM,78.8,68.0,69,30.07,10.0,SSE,11.5,18.4,N/A,,Mostly Cloudy,150,2013-09-15 23:55:00
8:15 PM,77.0,64.4,65,30.07,10.0,South,5.8,16.1,N/A,Thunderstorm,Thunderstorm,170,2013-09-16 00:15:00
8:35 PM,77.0,68.0,74,30.08,10.0,SW,8.1,-,N/A,Rain,Light Rain,220,2013-09-16 00:35:00
8:53 PM,75.0,69.1,82,30.05,-9999.0,Calm,Calm,-,N/A,,Unknown,0,2013-09-16 00:53:00
8:55 PM,73.4,68.0,83,30.07,10.0,Calm,Calm,-,N/A,Thunderstorm,Scattered Clouds,0,2013-09-16 00:55:00
9:15 PM,71.6,68.0,88,30.06,10.0,South,4.6,-,N/A,,Clear,170,2013-09-16 01:15:00
9:35 PM,71.6,69.8,94,30.07,10.0,ESE,3.5,-,N/A,,Clear,110,2013-09-16 01:35:00
9:53 PM,73.9,70.0,87,30.08,-9999.0,North,3.5,-,N/A,,Unknown,360,2013-09-16 01:53:00
9:55 PM,71.6,69.8,94,30.09,10.0,North,3.5,-,N/A,Thunderstorm,Clear,10,2013-09-16 01:55:00
10:15 PM,73.4,69.8,88,30.11,10.0,Calm,Calm,-,N/A,,Clear,0,2013-09-16 02:15:00
10:35 PM,73.4,69.8,88,30.10,10.0,ESE,4.6,-,N/A,,Clear,110,2013-09-16 02:35:00
10:53 PM,75.0,70.0,84,30.09,-9999.0,Calm,Calm,-,N/A,,Unknown,0,2013-09-16 02:53:00
10:55 PM,73.4,69.8,88,30.11,10.0,Calm,Calm,-,N/A,,Clear,0,2013-09-16 02:55:00
11:15 PM,71.6,69.8,94,30.10,10.0,ESE,3.5,-,N/A,,Clear,110,2013-09-16 03:15:00
11:35 PM,73.4,69.8,88,30.10,10.0,Calm,Calm,-,N/A,,Scattered Clouds,0,2013-09-16 03:35:00
11:53 PM,75.0,70.0,84,30.09,-9999.0,Calm,Calm,-,N/A,,Unknown,0,2013-09-16 03:53:00
11:55 PM,71.6,69.8,94,30.10,10.0,Calm,Calm,-,N/A,,Mostly Cloudy,0,2013-09-16 03:55:00